User: anonymous   Login
Location: Unspecified
(0.0000°N, 0.0000°E)
Time: 05:48:59
(UTC+00:00)
Language:

STARLINK-32776 - Orbit

View from above orbital plane
View from above orbital plane
View from above satellite
View from above satellite

Ground track
Ground track

The orbit is defined by the following mean orbital elements,

1 63032U          26144.75633580 +.00000000 +00000-0 +84288-3 0 00004
2 63032  53.1584 264.7548 0000909  92.2749 267.8358 15.34404316    09
Epoch (UTC): 24 May 2026 18:09:07
Eccentricity: 0.0000909
inclination: 53.1584°
perigee height: 462 km
apogee height: 463 km
right ascension of ascending node: 264.7548°
argument of perigee: 92.2749°
revolutions per day: 15.34404316
mean anomaly at epoch: 267.8358°

The dashed part of the orbit path shows where the satellite is in the earth's shadow,  

DLR